Погода в Енисее

Россия / Иркутская область     53°21′24″N   104°08′55″E
темп.,
°C
ветер,
м/с
пор.,
м/с
влажн.,
%
обл.,
%
осадки,
мм/ч
давл.,
гПа
погр.,
м
25 октября, пн
пн2523:000ююв228888 0.0 102112
02:000ююв1191100 0.0 102010
05:000с1191100 0.0 102110
08:00+2з21091100 0.3 1022341
11:00+4зсз51076100 0.1 10241349
14:00+6зсз595281 0.2 10231549
17:00+4зсз11605 0.0 102313
20:00+1юв227511 0.0 102421
26 октября, вт
вт2623:00+1вюв2283100 0.0 102230
02:00+1юв2280100 0.0 102035
05:00+1юв227961 0.0 101928
08:000ююв2281100 0.0 102011
11:00+5юз125452 0.0 1020204
14:00+9сз394768 0.0 10191002
17:00+6з22675 0.0 101938
20:00+3юв11845 0.0 102110
27 октября, ср
ср2723:00+2в228647 0.0 102012
02:00+1в22855 0.0 101721
05:00+1в228057 0.0 101525
08:00+1в227932 0.0 101421
11:00+7юв24505 0.0 1013326
14:00+10сз234369 0.0 1014707
17:00+8зсз11525 0.0 101711
20:00+4с116496 0.0 102110
28 октября, чт
чт2823:00+2с227314 0.0 102421
02:00+2ссв2561100 0.0 102488
05:00+2с2549100 0.0 1024160
08:00+1с2444100 0.2 1024149
11:00+2с3465100 0.2 1026436
14:00+3ссз3565100 0.2 1026754
17:00+2ссз2565100 0.0 1028702
20:00−2ссз22785 0.0 103211
29 октября, пт
пт2923:00−4св11825 0.0 103310
02:00−4в11815 0.0 103410
05:00−5в117061 0.0 103410
08:00−5в216415 0.0 103412
11:00+1вюв253785 0.0 1032468
14:00+4юв463230 0.0 1029763
17:00+2вюв25400 0.0 102994
20:00−2в21540 0.0 103110